Time,TemperatureF,DewpointF,PressureIn,WindDirection,WindDirectionDegrees,WindSpeedMPH,WindSpeedGustMPH,Humidity,HourlyPrecipIn,Conditions,Clouds,dailyrainin,SoftwareType,DateUTC
2013-08-19 00:00:00,66.6,57.7,30.06,SSE,147,0.0,0.0,73,0.00,,OVC250,0.00,VWS V14.01,2013-08-19 04:00:00,
2013-08-19 00:02:00,66.6,57.7,30.06,SSE,147,0.0,0.0,73,0.00,,OVC250,0.00,VWS V14.01,2013-08-19 04:02:00,
2013-08-19 00:08:00,66.5,57.6,30.06,SSE,147,0.0,0.0,73,0.00,,OVC250,0.00,VWS V14.01,2013-08-19 04:08:00,
2013-08-19 00:13:00,66.4,57.5,30.06,SSE,147,0.0,0.0,73,0.00,,OVC250,0.00,VWS V14.01,2013-08-19 04:13:00,
2013-08-19 00:18:00,66.3,57.8,30.06,SSE,147,0.0,0.0,74,0.00,,OVC250,0.00,VWS V14.01,2013-08-19 04:18:00,
2013-08-19 00:24:00,66.2,57.7,30.06,SSE,147,0.0,0.0,74,0.00,,OVC250,0.00,VWS V14.01,2013-08-19 04:24:00,
2013-08-19 00:30:00,66.1,58.0,30.05,SSE,147,0.0,1.0,75,0.00,,OVC250,0.00,VWS V14.01,2013-08-19 04:30:00,
2013-08-19 00:35:00,66.0,57.9,30.05,SSE,147,0.0,1.0,75,0.00,,OVC250,0.00,VWS V14.01,2013-08-19 04:35:00,
2013-08-19 00:40:00,65.9,57.8,30.05,SSE,147,0.0,2.0,75,0.00,,OVC250,0.00,VWS V14.01,2013-08-19 04:40:00,
2013-08-19 00:45:00,65.8,58.0,30.05,SSE,147,0.0,2.0,76,0.00,,OVC250,0.00,VWS V14.01,2013-08-19 04:45:00,
2013-08-19 00:50:00,65.8,58.0,30.05,SSE,147,0.0,2.0,76,0.00,,OVC250,0.00,VWS V14.01,2013-08-19 04:50:00,
2013-08-19 00:55:00,65.7,57.9,30.05,SSE,147,1.0,2.0,76,0.00,,OVC250,0.00,VWS V14.01,2013-08-19 04:55:00,
2013-08-19 01:00:00,65.6,58.2,30.05,SSE,147,0.0,2.0,77,0.00,,OVC250,0.00,VWS V14.01,2013-08-19 05:00:00,
2013-08-19 01:05:00,65.5,58.5,30.04,SSE,147,0.0,0.0,78,0.00,,OVC250,0.00,VWS V14.01,2013-08-19 05:05:00,
2013-08-19 01:11:00,65.4,58.4,30.04,SSE,147,0.0,1.0,78,0.00,,OVC250,0.00,VWS V14.01,2013-08-19 05:11:00,
2013-08-19 01:16:00,65.2,58.2,30.04,SSE,147,0.0,1.0,78,0.00,,OVC250,0.00,VWS V14.01,2013-08-19 05:16:00,
2013-08-19 01:21:00,65.2,58.5,30.04,SSE,147,0.0,1.0,79,0.00,,OVC250,0.00,VWS V14.01,2013-08-19 05:21:00,
2013-08-19 01:26:00,65.0,58.3,30.04,SSE,147,0.0,1.0,79,0.00,,OVC250,0.00,VWS V14.01,2013-08-19 05:26:00,
2013-08-19 01:30:00,65.0,58.7,30.04,SSE,147,0.0,1.0,80,0.00,,SCT250,0.00,VWS V14.01,2013-08-19 05:30:00,
2013-08-19 01:31:00,65.0,58.7,30.04,SSE,147,0.0,0.0,80,0.00,,OVC250,0.00,VWS V14.01,2013-08-19 05:31:00,
2013-08-19 01:37:00,64.9,58.6,30.04,SSE,147,0.0,2.0,80,0.00,,OVC250,0.00,VWS V14.01,2013-08-19 05:37:00,
2013-08-19 01:42:00,64.8,58.5,30.04,SSE,147,0.0,2.0,80,0.00,,OVC250,0.00,VWS V14.01,2013-08-19 05:42:00,
2013-08-19 01:47:00,64.7,58.7,30.03,SSE,147,0.0,4.0,81,0.00,,OVC250,0.00,VWS V14.01,2013-08-19 05:47:00,
2013-08-19 01:52:00,64.7,58.7,30.04,SSE,147,0.0,4.0,81,0.00,,OVC250,0.00,VWS V14.01,2013-08-19 05:52:00,
2013-08-19 01:58:00,64.5,58.5,30.03,SSE,147,0.0,4.0,81,0.00,,OVC250,0.00,VWS V14.01,2013-08-19 05:58:00,
2013-08-19 02:00:00,64.5,58.9,30.03,SSE,147,0.0,4.0,82,0.00,,SCT250,0.00,VWS V14.01,2013-08-19 06:00:00,
2013-08-19 02:03:00,64.4,58.8,30.03,SSE,147,0.0,0.0,82,0.00,,OVC250,0.00,VWS V14.01,2013-08-19 06:03:00,
2013-08-19 02:08:00,64.4,58.8,30.03,SSE,147,0.0,0.0,82,0.00,,OVC250,0.00,VWS V14.01,2013-08-19 06:08:00,
2013-08-19 02:13:00,64.3,58.7,30.03,SSE,147,0.0,0.0,82,0.00,,OVC250,0.00,VWS V14.01,2013-08-19 06:13:00,
2013-08-19 02:18:00,64.2,58.9,30.03,SSE,147,0.0,0.0,83,0.00,,OVC250,0.00,VWS V14.01,2013-08-19 06:18:00,
2013-08-19 02:23:00,64.0,58.7,30.03,SSE,147,0.0,1.0,83,0.00,,BKN250,0.00,VWS V14.01,2013-08-19 06:23:00,
2013-08-19 02:28:00,63.9,58.6,30.03,SSE,147,0.0,1.0,83,0.00,,BKN250,0.00,VWS V14.01,2013-08-19 06:28:00,
2013-08-19 02:30:00,63.8,58.9,30.03,SSE,147,0.0,1.0,84,0.00,,SCT250,0.00,VWS V14.01,2013-08-19 06:30:00,
2013-08-19 02:33:00,63.8,58.9,30.03,SSE,147,0.0,0.0,84,0.00,,BKN250,0.00,VWS V14.01,2013-08-19 06:33:00,
2013-08-19 02:38:00,63.6,58.7,30.02,SSE,147,0.0,0.0,84,0.00,,BKN250,0.00,VWS V14.01,2013-08-19 06:38:00,
2013-08-19 02:43:00,63.5,58.6,30.02,SSE,147,0.0,0.0,84,0.00,,BKN250,0.00,VWS V14.01,2013-08-19 06:43:00,
2013-08-19 02:48:00,63.3,58.7,30.02,SSE,147,0.0,0.0,85,0.00,,BKN250,0.00,VWS V14.01,2013-08-19 06:48:00,
2013-08-19 02:53:00,63.2,58.6,30.02,SSE,147,0.0,0.0,85,0.00,,BKN250,0.00,VWS V14.01,2013-08-19 06:53:00,
2013-08-19 02:58:00,63.0,58.8,30.02,SSE,147,0.0,0.0,86,0.00,,BKN250,0.00,VWS V14.01,2013-08-19 06:58:00,
2013-08-19 03:00:00,63.0,58.8,30.02,SSE,147,0.0,0.0,86,0.00,,SCT250,0.00,VWS V14.01,2013-08-19 07:00:00,
2013-08-19 03:04:00,62.9,58.7,30.02,SSE,147,0.0,1.0,86,0.00,,BKN250,0.00,VWS V14.01,2013-08-19 07:04:00,
2013-08-19 03:09:00,62.8,58.6,30.02,SSE,147,0.0,1.0,86,0.00,,BKN250,0.00,VWS V14.01,2013-08-19 07:09:00,
2013-08-19 03:14:00,62.6,58.7,30.01,SSE,147,0.0,1.0,87,0.00,,BKN250,0.00,VWS V14.01,2013-08-19 07:14:00,
2013-08-19 03:20:00,62.5,58.6,30.02,SSE,147,1.0,2.0,87,0.00,,BKN250,0.00,VWS V14.01,2013-08-19 07:20:00,
2013-08-19 03:25:00,62.5,58.6,30.02,SSE,159,2.0,6.0,87,0.00,,OVC250,0.00,VWS V14.01,2013-08-19 07:25:00,
2013-08-19 03:30:00,62.6,58.7,30.01,SSW,194,3.0,6.0,87,0.00,,OVC250,0.00,VWS V14.01,2013-08-19 07:30:00,
2013-08-19 03:35:00,62.5,58.6,30.02,SSW,194,0.0,2.0,87,0.00,,OVC250,0.00,VWS V14.01,2013-08-19 07:35:00,
2013-08-19 03:40:00,62.5,58.6,30.01,SSW,198,3.0,4.0,87,0.00,,OVC250,0.00,VWS V14.01,2013-08-19 07:40:00,
2013-08-19 03:45:00,62.5,58.6,30.01,SSW,198,3.0,4.0,87,0.00,,OVC250,0.00,VWS V14.01,2013-08-19 07:45:00,
2013-08-19 03:51:00,62.5,58.9,30.02,SW,219,2.0,6.0,88,0.00,,OVC250,0.00,VWS V14.01,2013-08-19 07:51:00,
2013-08-19 03:56:00,62.5,58.9,30.01,WSW,248,3.0,6.0,88,0.00,,OVC250,0.00,VWS V14.01,2013-08-19 07:56:00,
2013-08-19 04:00:00,62.5,58.9,30.01,WSW,256,4.0,7.0,88,0.00,,SCT250,0.00,VWS V14.01,2013-08-19 08:00:00,
2013-08-19 04:01:00,62.5,58.9,30.01,WSW,256,1.0,4.0,88,0.00,,OVC250,0.00,VWS V14.01,2013-08-19 08:01:00,
2013-08-19 04:06:00,62.4,58.8,30.02,WSW,256,4.0,5.0,88,0.00,,OVC250,0.00,VWS V14.01,2013-08-19 08:06:00,
2013-08-19 04:12:00,62.3,58.7,30.01,West,261,5.0,7.0,88,0.00,,BKN250,0.00,VWS V14.01,2013-08-19 08:12:00,
2013-08-19 04:17:00,62.3,58.7,30.01,West,272,7.0,7.0,88,0.00,,BKN250,0.00,VWS V14.01,2013-08-19 08:17:00,
2013-08-19 04:22:00,62.3,58.7,30.01,West,273,2.0,8.0,88,0.00,,BKN250,0.00,VWS V14.01,2013-08-19 08:22:00,
2013-08-19 04:28:00,62.3,58.7,30.01,West,273,4.0,8.0,88,0.00,,BKN250,0.00,VWS V14.01,2013-08-19 08:28:00,
2013-08-19 04:30:00,62.3,58.7,30.01,West,274,7.0,8.0,88,0.00,,SCT250,0.00,VWS V14.01,2013-08-19 08:30:00,
2013-08-19 04:33:00,62.3,58.7,30.01,West,274,4.0,7.0,88,0.00,,BKN250,0.00,VWS V14.01,2013-08-19 08:33:00,
2013-08-19 04:38:00,62.3,58.7,30.01,West,274,2.0,8.0,88,0.00,,BKN250,0.00,VWS V14.01,2013-08-19 08:38:00,
2013-08-19 04:43:00,62.3,58.7,30.01,West,275,5.0,8.0,88,0.00,,BKN250,0.00,VWS V14.01,2013-08-19 08:43:00,
2013-08-19 04:50:00,62.3,58.7,30.01,West,277,2.0,8.0,88,0.00,,BKN250,0.00,VWS V14.01,2013-08-19 08:50:00,
2013-08-19 04:55:00,62.3,58.7,30.01,West,277,1.0,8.0,88,0.00,,BKN250,0.00,VWS V14.01,2013-08-19 08:55:00,
2013-08-19 05:00:00,62.3,58.7,30.01,West,277,0.0,8.0,88,0.00,,SCT250,0.00,VWS V14.01,2013-08-19 09:00:00,
2013-08-19 05:05:00,62.3,58.7,30.01,West,277,1.0,8.0,88,0.00,,SCT250,0.00,VWS V14.01,2013-08-19 09:05:00,
2013-08-19 05:10:00,62.3,58.7,30.01,West,277,6.0,8.0,88,0.00,,SCT250,0.00,VWS V14.01,2013-08-19 09:10:00,
2013-08-19 05:15:00,62.3,58.7,30.01,West,277,2.0,8.0,88,0.00,,SCT250,0.00,VWS V14.01,2013-08-19 09:15:00,
2013-08-19 05:21:00,62.2,58.6,30.01,West,277,2.0,8.0,88,0.00,,SCT250,0.00,VWS V14.01,2013-08-19 09:21:00,
2013-08-19 05:26:00,62.2,58.6,30.01,West,277,5.0,8.0,88,0.00,,SCT250,0.00,VWS V14.01,2013-08-19 09:26:00,
2013-08-19 05:30:00,62.2,58.6,30.01,West,277,5.0,11.0,88,0.01,,SCT250,0.01,VWS V14.01,2013-08-19 09:30:00,
2013-08-19 05:31:00,62.2,58.6,30.01,West,277,6.0,6.0,88,0.01,,SCT250,0.01,VWS V14.01,2013-08-19 09:31:00,
2013-08-19 05:36:00,62.1,58.5,30.01,West,280,5.0,9.0,88,0.01,,SCT250,0.01,VWS V14.01,2013-08-19 09:36:00,
2013-08-19 05:41:00,62.1,58.5,30.01,West,279,2.0,9.0,88,0.01,,SCT250,0.01,VWS V14.01,2013-08-19 09:41:00,
2013-08-19 05:47:00,62.1,58.5,30.01,West,278,7.0,9.0,88,0.01,,SCT250,0.01,VWS V14.01,2013-08-19 09:47:00,
2013-08-19 05:52:00,62.1,58.5,30.01,West,278,2.0,9.0,88,0.01,,SCT250,0.01,VWS V14.01,2013-08-19 09:52:00,
2013-08-19 05:57:00,62.1,58.5,30.01,West,279,4.0,9.0,88,0.01,,SCT250,0.01,VWS V14.01,2013-08-19 09:57:00,
2013-08-19 06:00:00,62.0,58.4,30.01,West,280,4.0,9.0,88,0.01,,SCT250,0.01,VWS V14.01,2013-08-19 10:00:00,
2013-08-19 06:03:00,62.0,58.4,30.01,West,280,6.0,9.0,88,0.01,,SCT250,0.01,VWS V14.01,2013-08-19 10:03:00,
2013-08-19 06:08:00,62.0,58.4,30.01,West,279,4.0,9.0,88,0.01,,SCT250,0.01,VWS V14.01,2013-08-19 10:08:00,
2013-08-19 06:13:00,62.0,58.4,30.01,West,280,1.0,9.0,88,0.01,,SCT250,0.01,VWS V14.01,2013-08-19 10:13:00,
2013-08-19 06:18:00,62.1,58.5,30.01,West,281,6.0,9.0,88,0.01,,SCT250,0.01,VWS V14.01,2013-08-19 10:18:00,
2013-08-19 06:23:00,62.1,58.5,30.01,West,279,5.0,11.0,88,0.01,,SCT250,0.01,VWS V14.01,2013-08-19 10:23:00,
2013-08-19 06:28:00,62.2,58.6,30.01,West,272,1.0,11.0,88,0.01,,SCT250,0.01,VWS V14.01,2013-08-19 10:28:00,
2013-08-19 06:30:00,62.2,58.6,30.01,West,272,1.0,11.0,88,0.01,,SCT250,0.01,VWS V14.01,2013-08-19 10:30:00,
2013-08-19 06:33:00,62.3,58.7,30.01,West,272,4.0,5.0,88,0.00,,SCT250,0.01,VWS V14.01,2013-08-19 10:33:00,
2013-08-19 06:38:00,62.3,58.7,30.01,West,273,1.0,6.0,88,0.00,,SCT250,0.01,VWS V14.01,2013-08-19 10:38:00,
2013-08-19 06:44:00,62.4,58.8,30.01,WNW,282,1.0,7.0,88,0.00,,SCT250,0.01,VWS V14.01,2013-08-19 10:44:00,
2013-08-19 06:49:00,62.5,58.9,30.01,West,275,6.0,8.0,88,0.00,,SCT250,0.01,VWS V14.01,2013-08-19 10:49:00,
2013-08-19 06:54:00,62.5,58.9,30.01,West,271,1.0,8.0,88,0.00,,SCT250,0.01,VWS V14.01,2013-08-19 10:54:00,
2013-08-19 07:00:00,62.8,59.2,30.01,West,271,4.0,8.0,88,0.00,,SCT250,0.01,VWS V14.01,2013-08-19 11:00:00,
2013-08-19 07:05:00,63.0,59.1,30.01,West,281,4.0,9.0,87,0.00,,SCT250,0.01,VWS V14.01,2013-08-19 11:05:00,
2013-08-19 07:11:00,63.3,59.4,30.01,West,277,2.0,9.0,87,0.00,,OVC250,0.01,VWS V14.01,2013-08-19 11:11:00,
2013-08-19 07:16:00,63.4,59.2,30.01,West,277,0.0,9.0,86,0.00,,OVC250,0.01,VWS V14.01,2013-08-19 11:16:00,
2013-08-19 07:21:00,63.5,59.2,30.01,West,281,4.0,12.0,86,0.00,,OVC250,0.01,VWS V14.01,2013-08-19 11:21:00,
2013-08-19 07:26:00,63.7,59.4,30.01,West,277,4.0,12.0,86,0.00,,OVC250,0.01,VWS V14.01,2013-08-19 11:26:00,
2013-08-19 07:30:00,63.9,59.3,30.01,West,275,8.0,12.0,85,0.00,,SCT250,0.01,VWS V14.01,2013-08-19 11:30:00,
2013-08-19 07:31:00,63.9,59.3,30.01,West,275,8.0,12.0,85,0.00,,OVC250,0.01,VWS V14.01,2013-08-19 11:31:00,
2013-08-19 07:36:00,64.3,59.7,30.00,West,277,1.0,12.0,85,0.00,,OVC250,0.01,VWS V14.01,2013-08-19 11:36:00,
2013-08-19 07:42:00,64.7,59.8,30.01,West,271,5.0,12.0,84,0.00,,OVC250,0.01,VWS V14.01,2013-08-19 11:42:00,
2013-08-19 07:47:00,65.2,59.9,30.00,West,273,7.0,12.0,83,0.00,,OVC250,0.01,VWS V14.01,2013-08-19 11:47:00,
2013-08-19 07:52:00,65.5,60.2,30.00,West,277,8.0,12.0,83,0.00,,OVC250,0.01,VWS V14.01,2013-08-19 11:52:00,
2013-08-19 07:57:00,65.8,59.8,30.00,West,275,2.0,12.0,81,0.00,,OVC250,0.01,VWS V14.01,2013-08-19 11:57:00,
2013-08-19 08:00:00,66.1,60.1,30.00,West,274,6.0,12.0,81,0.00,,SCT250,0.01,VWS V14.01,2013-08-19 12:00:00,
2013-08-19 08:02:00,66.2,60.2,30.00,West,277,6.0,8.0,81,0.00,,SCT250,0.01,VWS V14.01,2013-08-19 12:02:00,
2013-08-19 08:08:00,66.6,60.2,30.00,West,276,12.0,12.0,80,0.00,,SCT250,0.01,VWS V14.01,2013-08-19 12:08:00,
2013-08-19 08:13:00,66.8,60.4,30.00,West,276,6.0,12.0,80,0.00,,SCT250,0.01,VWS V14.01,2013-08-19 12:13:00,
2013-08-19 08:18:00,67.3,60.6,30.00,West,275,7.0,12.0,79,0.00,,SCT250,0.01,VWS V14.01,2013-08-19 12:18:00,
2013-08-19 08:23:00,67.8,60.7,30.00,West,279,2.0,12.0,78,0.00,,SCT250,0.01,VWS V14.01,2013-08-19 12:23:00,
2013-08-19 08:28:00,68.2,61.1,30.00,West,277,5.0,12.0,78,0.00,,SCT250,0.01,VWS V14.01,2013-08-19 12:28:00,
2013-08-19 08:30:00,68.4,60.9,30.00,West,277,5.0,12.0,77,0.00,,SCT250,0.01,VWS V14.01,2013-08-19 12:30:00,
2013-08-19 08:34:00,68.6,61.1,30.00,West,279,2.0,6.0,77,0.00,,SCT250,0.01,VWS V14.01,2013-08-19 12:34:00,
2013-08-19 08:39:00,69.2,61.3,30.00,West,279,4.0,11.0,76,0.00,,SCT250,0.01,VWS V14.01,2013-08-19 12:39:00,
2013-08-19 08:44:00,69.7,61.4,30.01,West,276,1.0,11.0,75,0.00,,SCT250,0.01,VWS V14.01,2013-08-19 12:44:00,
2013-08-19 08:49:00,70.4,61.7,30.00,West,277,4.0,11.0,74,0.00,,SCT250,0.01,VWS V14.01,2013-08-19 12:49:00,
2013-08-19 08:54:00,70.8,61.7,30.00,West,279,9.0,13.0,73,0.00,,SCT250,0.01,VWS V14.01,2013-08-19 12:54:00,
2013-08-19 08:59:00,71.0,61.5,30.00,West,275,9.0,13.0,72,0.00,,SCT250,0.01,VWS V14.01,2013-08-19 12:59:00,
2013-08-19 09:00:00,71.0,61.5,30.00,West,277,8.0,13.0,72,0.00,,SCT250,0.01,VWS V14.01,2013-08-19 13:00:00,
2013-08-19 09:04:00,71.1,61.6,30.00,West,273,6.0,10.0,72,0.00,,BKN300,0.01,VWS V14.01,2013-08-19 13:04:00,
2013-08-19 09:10:00,71.7,61.8,30.00,West,281,1.0,10.0,71,0.00,,BKN300,0.01,VWS V14.01,2013-08-19 13:10:00,
2013-08-19 09:15:00,72.2,61.9,29.99,WNW,282,6.0,12.0,70,0.00,,BKN300,0.01,VWS V14.01,2013-08-19 13:15:00,
2013-08-19 09:20:00,72.5,62.2,30.00,West,266,8.0,12.0,70,0.00,,BKN300,0.01,VWS V14.01,2013-08-19 13:20:00,
2013-08-19 09:25:00,72.9,62.5,30.00,West,266,0.0,12.0,70,0.00,,BKN300,0.01,VWS V14.01,2013-08-19 13:25:00,
2013-08-19 09:30:00,73.6,62.4,30.00,West,278,4.0,12.0,68,0.00,,BKN300,0.01,VWS V14.01,2013-08-19 13:30:00,
2013-08-19 09:36:00,73.9,62.3,29.99,West,278,4.0,11.0,67,0.00,,BKN300,0.01,VWS V14.01,2013-08-19 13:36:00,
2013-08-19 09:41:00,74.4,62.3,29.99,WNW,284,0.0,11.0,66,0.00,,BKN300,0.01,VWS V14.01,2013-08-19 13:41:00,
2013-08-19 09:46:00,74.9,62.3,29.99,WNW,284,0.0,11.0,65,0.00,,BKN300,0.01,VWS V14.01,2013-08-19 13:46:00,
2013-08-19 09:51:00,75.4,62.8,29.98,WNW,285,2.0,11.0,65,0.00,,BKN300,0.01,VWS V14.01,2013-08-19 13:51:00,
2013-08-19 09:56:00,75.7,61.8,29.99,WNW,286,4.0,11.0,62,0.00,,BKN300,0.01,VWS V14.01,2013-08-19 13:56:00,
2013-08-19 10:00:00,75.8,62.3,29.99,West,276,2.0,11.0,63,0.00,,SCT250,0.01,VWS V14.01,2013-08-19 14:00:00,
2013-08-19 10:02:00,75.8,61.9,29.99,West,269,11.0,12.0,62,0.00,,SCT250,0.01,VWS V14.01,2013-08-19 14:02:00,
2013-08-19 10:07:00,75.5,62.5,29.99,West,279,1.0,12.0,64,0.00,,SCT250,0.01,VWS V14.01,2013-08-19 14:07:00,
2013-08-19 10:12:00,75.9,61.5,29.99,West,271,7.0,12.0,61,0.00,,SCT250,0.01,VWS V14.01,2013-08-19 14:12:00,
2013-08-19 10:18:00,76.1,61.7,29.99,WNW,287,2.0,12.0,61,0.00,,SCT250,0.01,VWS V14.01,2013-08-19 14:18:00,
2013-08-19 10:23:00,76.5,61.6,29.98,West,264,2.0,12.0,60,0.00,,SCT250,0.01,VWS V14.01,2013-08-19 14:23:00,
2013-08-19 10:28:00,76.4,61.0,29.98,West,279,0.0,13.0,59,0.00,,SCT250,0.01,VWS V14.01,2013-08-19 14:28:00,
2013-08-19 10:30:00,76.7,60.8,29.98,West,280,2.0,13.0,58,0.00,,SCT250,0.01,VWS V14.01,2013-08-19 14:30:00,
2013-08-19 10:33:00,77.1,60.7,29.98,West,281,2.0,5.0,57,0.00,,SCT250,0.01,VWS V14.01,2013-08-19 14:33:00,
2013-08-19 11:00:00,78.6,61.6,29.98,West,271,0.0,12.0,56,0.00,,SCT250,0.01,VWS V14.01,2013-08-19 15:00:00,
2013-08-19 11:30:00,79.8,59.0,29.97,West,270,3.0,13.0,49,0.00,,SCT250,0.01,VWS V14.01,2013-08-19 15:30:00,
2013-08-19 12:27:00,82.3,59.5,29.96,West,267,1.0,3.0,46,0.00,,SCT250,0.01,VWS V14.01,2013-08-19 16:27:00,
2013-08-19 12:32:00,81.9,59.1,29.96,NW,309,4.0,5.0,46,0.00,,BKN250,0.01,VWS V14.01,2013-08-19 16:32:00,
2013-08-19 12:37:00,81.6,60.0,29.96,West,268,8.0,8.0,48,0.00,,BKN250,0.01,VWS V14.01,2013-08-19 16:37:00,
2013-08-19 12:42:00,81.5,59.9,29.96,West,263,4.0,8.0,48,0.00,,BKN250,0.01,VWS V14.01,2013-08-19 16:42:00,
2013-08-19 12:47:00,81.6,60.0,29.96,West,275,6.0,13.0,48,0.00,,BKN250,0.01,VWS V14.01,2013-08-19 16:47:00,
2013-08-19 12:52:00,81.4,59.8,29.95,West,271,2.0,15.0,48,0.00,,BKN250,0.01,VWS V14.01,2013-08-19 16:52:00,
2013-08-19 12:57:00,81.7,60.7,29.95,WNW,287,2.0,15.0,49,0.00,,BKN250,0.01,VWS V14.01,2013-08-19 16:57:00,
2013-08-19 13:02:00,82.0,59.8,29.95,West,273,1.0,6.0,47,0.00,,BKN250,0.01,VWS V14.01,2013-08-19 17:02:00,
2013-08-19 13:07:00,81.7,60.7,29.96,West,268,6.0,16.0,49,0.00,,BKN250,0.01,VWS V14.01,2013-08-19 17:07:00,
2013-08-19 13:12:00,82.1,61.1,29.95,WNW,284,11.0,16.0,49,0.00,,BKN250,0.01,VWS V14.01,2013-08-19 17:12:00,
2013-08-19 13:17:00,82.3,61.2,29.95,North,355,4.0,16.0,49,0.00,,BKN250,0.01,VWS V14.01,2013-08-19 17:17:00,
2013-08-19 13:22:00,82.6,60.9,29.95,West,271,1.0,16.0,48,0.00,,BKN250,0.01,VWS V14.01,2013-08-19 17:22:00,
2013-08-19 13:27:00,82.6,61.5,29.95,West,263,7.0,16.0,49,0.00,,BKN250,0.01,VWS V14.01,2013-08-19 17:27:00,
2013-08-19 13:32:00,82.7,61.6,29.94,West,281,1.0,5.0,49,0.00,,BKN250,0.01,VWS V14.01,2013-08-19 17:32:00,
2013-08-19 13:37:00,82.9,61.8,29.95,WNW,284,6.0,11.0,49,0.00,,BKN250,0.01,VWS V14.01,2013-08-19 17:37:00,
2013-08-19 13:42:00,82.8,61.1,29.94,West,268,3.0,11.0,48,0.00,,BKN250,0.01,VWS V14.01,2013-08-19 17:42:00,
2013-08-19 13:47:00,82.9,61.2,29.94,WNW,283,2.0,11.0,48,0.00,,BKN250,0.01,VWS V14.01,2013-08-19 17:47:00,
2013-08-19 13:52:00,82.6,62.1,29.94,West,276,1.0,12.0,50,0.00,,BKN250,0.01,VWS V14.01,2013-08-19 17:52:00,
2013-08-19 13:57:00,82.1,61.6,29.94,West,269,6.0,14.0,50,0.00,,BKN250,0.01,VWS V14.01,2013-08-19 17:57:00,
2013-08-19 14:02:00,82.0,62.1,29.94,West,280,5.0,9.0,51,0.00,,OVC250,0.01,VWS V14.01,2013-08-19 18:02:00,
2013-08-19 14:07:00,82.1,62.2,29.94,WNW,292,0.0,9.0,51,0.00,,OVC250,0.01,VWS V14.01,2013-08-19 18:07:00,
2013-08-19 14:12:00,82.4,62.5,29.94,WNW,295,0.0,11.0,51,0.00,,OVC250,0.01,VWS V14.01,2013-08-19 18:12:00,
2013-08-19 14:17:00,82.9,62.4,29.94,West,275,2.0,11.0,50,0.00,,OVC250,0.01,VWS V14.01,2013-08-19 18:17:00,
2013-08-19 14:22:00,82.3,61.8,29.93,West,272,8.0,12.0,50,0.00,,OVC250,0.01,VWS V14.01,2013-08-19 18:22:00,
2013-08-19 14:27:00,82.1,62.8,29.93,West,277,0.0,16.0,52,0.00,,OVC250,0.01,VWS V14.01,2013-08-19 18:27:00,
2013-08-19 14:32:00,82.6,62.1,29.93,NNW,344,5.0,5.0,50,0.00,,OVC250,0.01,VWS V14.01,2013-08-19 18:32:00,
2013-08-19 14:37:00,83.1,62.0,29.93,West,279,2.0,8.0,49,0.00,,OVC250,0.01,VWS V14.01,2013-08-19 18:37:00,
2013-08-19 14:42:00,82.8,61.7,29.93,West,272,5.0,13.0,49,0.00,,OVC250,0.01,VWS V14.01,2013-08-19 18:42:00,
2013-08-19 14:47:00,82.6,62.1,29.93,West,273,4.0,13.0,50,0.00,,OVC250,0.01,VWS V14.01,2013-08-19 18:47:00,
2013-08-19 14:52:00,82.3,61.2,29.93,West,272,2.0,15.0,49,0.00,,OVC250,0.01,VWS V14.01,2013-08-19 18:52:00,
2013-08-19 14:57:00,82.3,61.2,29.93,WNW,296,4.0,15.0,49,0.00,,OVC250,0.01,VWS V14.01,2013-08-19 18:57:00,
2013-08-19 15:02:00,82.9,62.4,29.93,NW,309,2.0,4.0,50,0.00,,OVC250,0.01,VWS V14.01,2013-08-19 19:02:00,
2013-08-19 15:07:00,82.8,60.5,29.93,West,271,6.0,13.0,47,0.00,,OVC250,0.01,VWS V14.01,2013-08-19 19:07:00,
2013-08-19 15:12:00,82.5,60.8,29.93,West,275,0.0,13.0,48,0.00,,OVC250,0.01,VWS V14.01,2013-08-19 19:12:00,
2013-08-19 15:17:00,82.6,59.1,29.93,West,273,6.0,14.0,45,0.00,,OVC250,0.01,VWS V14.01,2013-08-19 19:17:00,
2013-08-19 15:22:00,82.6,59.8,29.93,WSW,254,13.0,16.0,46,0.00,,OVC250,0.01,VWS V14.01,2013-08-19 19:22:00,
2013-08-19 15:27:00,82.4,57.7,29.93,West,280,16.0,16.0,43,0.00,,OVC250,0.01,VWS V14.01,2013-08-19 19:27:00,
2013-08-19 15:32:00,82.1,58.0,29.92,WNW,286,2.0,13.0,44,0.00,,OVC250,0.01,VWS V14.01,2013-08-19 19:32:00,
2013-08-19 15:37:00,82.3,58.9,29.92,WNW,292,8.0,13.0,45,0.00,,OVC250,0.01,VWS V14.01,2013-08-19 19:37:00,
2013-08-19 15:42:00,82.7,58.0,29.93,West,275,7.0,13.0,43,0.00,,OVC250,0.01,VWS V14.01,2013-08-19 19:42:00,
2013-08-19 15:47:00,83.0,58.2,29.92,West,260,3.0,13.0,43,0.00,,OVC250,0.01,VWS V14.01,2013-08-19 19:47:00,
2013-08-19 15:52:00,83.0,58.2,29.92,West,281,5.0,13.0,43,0.00,,OVC250,0.01,VWS V14.01,2013-08-19 19:52:00,
2013-08-19 15:57:00,83.2,59.0,29.92,West,273,0.0,13.0,44,0.00,,OVC250,0.01,VWS V14.01,2013-08-19 19:57:00,
2013-08-19 16:02:00,83.3,59.8,29.92,West,276,6.0,8.0,45,0.00,,OVC250,0.01,VWS V14.01,2013-08-19 20:02:00,
2013-08-19 16:07:00,83.2,60.3,29.92,West,271,2.0,8.0,46,0.00,,OVC250,0.01,VWS V14.01,2013-08-19 20:07:00,
2013-08-19 16:12:00,83.1,59.6,29.92,West,281,7.0,13.0,45,0.00,,OVC250,0.01,VWS V14.01,2013-08-19 20:12:00,
2013-08-19 16:17:00,82.6,59.8,29.92,WSW,249,5.0,13.0,46,0.00,,OVC250,0.01,VWS V14.01,2013-08-19 20:17:00,
2013-08-19 16:22:00,82.3,60.1,29.92,WSW,257,4.0,13.0,47,0.00,,OVC250,0.01,VWS V14.01,2013-08-19 20:22:00,
2013-08-19 16:27:00,82.0,59.2,29.92,West,261,6.0,13.0,46,0.00,,OVC250,0.01,VWS V14.01,2013-08-19 20:27:00,
2013-08-19 16:32:00,81.8,59.0,29.92,West,266,0.0,1.0,46,0.00,,OVC250,0.01,VWS V14.01,2013-08-19 20:32:00,
2013-08-19 16:37:00,82.0,58.6,29.92,West,271,2.0,3.0,45,0.00,,OVC250,0.01,VWS V14.01,2013-08-19 20:37:00,
2013-08-19 16:42:00,82.0,58.6,29.92,NNW,333,0.0,8.0,45,0.00,,OVC250,0.01,VWS V14.01,2013-08-19 20:42:00,
2013-08-19 16:47:00,81.7,59.5,29.92,West,280,6.0,8.0,47,0.00,,OVC250,0.01,VWS V14.01,2013-08-19 20:47:00,
2013-08-19 16:52:00,81.1,59.6,29.92,West,271,13.0,13.0,48,0.00,,OVC250,0.01,VWS V14.01,2013-08-19 20:52:00,
2013-08-19 16:57:00,80.5,57.8,29.92,WNW,301,5.0,18.0,46,0.00,,OVC250,0.01,VWS V14.01,2013-08-19 20:57:00,
2013-08-19 17:02:00,80.4,57.8,29.92,West,275,7.0,12.0,46,0.00,,OVC250,0.01,VWS V14.01,2013-08-19 21:02:00,
2013-08-19 17:07:00,80.4,58.3,29.92,West,274,4.0,12.0,47,0.00,,OVC250,0.01,VWS V14.01,2013-08-19 21:07:00,
2013-08-19 17:12:00,80.4,58.9,29.92,WNW,287,0.0,12.0,48,0.00,,OVC250,0.01,VWS V14.01,2013-08-19 21:12:00,
2013-08-19 17:17:00,80.4,58.9,29.92,West,268,1.0,12.0,48,0.00,,OVC250,0.01,VWS V14.01,2013-08-19 21:17:00,
2013-08-19 17:22:00,80.3,58.2,29.92,WNW,292,1.0,12.0,47,0.00,,OVC250,0.01,VWS V14.01,2013-08-19 21:22:00,
2013-08-19 17:27:00,80.1,58.7,29.92,WSW,240,2.0,12.0,48,0.00,,OVC250,0.01,VWS V14.01,2013-08-19 21:27:00,
2013-08-19 17:32:00,79.8,58.4,29.92,West,280,8.0,11.0,48,0.00,,OVC250,0.01,VWS V14.01,2013-08-19 21:32:00,
2013-08-19 17:37:00,79.6,58.8,29.92,West,263,1.0,11.0,49,0.00,,OVC250,0.01,VWS V14.01,2013-08-19 21:37:00,
2013-08-19 17:42:00,79.4,59.2,29.92,West,273,1.0,11.0,50,0.00,,OVC250,0.01,VWS V14.01,2013-08-19 21:42:00,
2013-08-19 17:47:00,79.3,59.1,29.92,West,273,1.0,11.0,50,0.00,,OVC250,0.01,VWS V14.01,2013-08-19 21:47:00,
2013-08-19 17:52:00,79.2,59.0,29.92,West,265,4.0,11.0,50,0.00,,OVC250,0.01,VWS V14.01,2013-08-19 21:52:00,
2013-08-19 17:57:00,79.1,58.9,29.92,West,281,4.0,11.0,50,0.00,,OVC250,0.01,VWS V14.01,2013-08-19 21:57:00,
2013-08-19 18:02:00,79.1,58.9,29.92,West,275,1.0,7.0,50,0.00,,OVC250,0.01,VWS V14.01,2013-08-19 22:02:00,
2013-08-19 18:07:00,79.1,58.9,29.92,West,279,0.0,8.0,50,0.00,,OVC250,0.01,VWS V14.01,2013-08-19 22:07:00,
2013-08-19 18:12:00,79.1,58.9,29.92,WNW,298,6.0,12.0,50,0.00,,BKN250,0.01,VWS V14.01,2013-08-19 22:12:00,
2013-08-19 18:17:00,79.0,59.3,29.93,West,277,0.0,12.0,51,0.00,,BKN250,0.01,VWS V14.01,2013-08-19 22:17:00,
2013-08-19 18:22:00,78.9,59.2,29.93,West,277,6.0,12.0,51,0.00,,BKN250,0.01,VWS V14.01,2013-08-19 22:22:00,
2013-08-19 18:27:00,78.7,59.6,29.93,West,277,0.0,12.0,52,0.00,,BKN250,0.01,VWS V14.01,2013-08-19 22:27:00,
2013-08-19 18:32:00,78.6,59.5,29.93,West,278,5.0,11.0,52,0.00,,BKN250,0.01,VWS V14.01,2013-08-19 22:32:00,
2013-08-19 18:37:00,78.4,59.9,29.93,West,279,7.0,11.0,53,0.00,,BKN250,0.01,VWS V14.01,2013-08-19 22:37:00,
2013-08-19 18:42:00,78.2,59.7,29.94,West,267,5.0,11.0,53,0.00,,BKN250,0.01,VWS V14.01,2013-08-19 22:42:00,
2013-08-19 18:47:00,78.1,60.1,29.94,West,278,8.0,11.0,54,0.00,,BKN250,0.01,VWS V14.01,2013-08-19 22:47:00,
2013-08-19 18:52:00,77.9,59.9,29.94,West,273,6.0,11.0,54,0.00,,BKN250,0.01,VWS V14.01,2013-08-19 22:52:00,
2013-08-19 18:57:00,77.8,60.4,29.94,West,279,0.0,11.0,55,0.00,,BKN250,0.01,VWS V14.01,2013-08-19 22:57:00,
2013-08-19 19:02:00,77.7,60.3,29.94,West,279,4.0,4.0,55,0.00,,BKN250,0.01,VWS V14.01,2013-08-19 23:02:00,
2013-08-19 19:07:00,77.6,60.7,29.94,WNW,302,9.0,9.0,56,0.00,,BKN250,0.01,VWS V14.01,2013-08-19 23:07:00,
2013-08-19 19:12:00,77.5,60.6,29.94,West,281,0.0,9.0,56,0.00,,BKN250,0.01,VWS V14.01,2013-08-19 23:12:00,
2013-08-19 19:17:00,77.4,61.0,29.94,WNW,288,0.0,9.0,57,0.00,,BKN250,0.01,VWS V14.01,2013-08-19 23:17:00,
2013-08-19 19:22:00,77.3,60.9,29.94,WNW,288,2.0,9.0,57,0.00,,BKN250,0.01,VWS V14.01,2013-08-19 23:22:00,
2013-08-19 19:27:00,77.1,61.2,29.94,WNW,294,0.0,9.0,58,0.00,,BKN250,0.01,VWS V14.01,2013-08-19 23:27:00,
2013-08-19 19:32:00,76.9,61.0,29.94,WNW,284,2.0,6.0,58,0.00,,BKN250,0.01,VWS V14.01,2013-08-19 23:32:00,
2013-08-19 19:37:00,76.7,61.3,29.94,WNW,284,2.0,6.0,59,0.00,,BKN250,0.01,VWS V14.01,2013-08-19 23:37:00,
2013-08-19 19:42:00,76.6,61.2,29.94,SW,233,3.0,7.0,59,0.00,,BKN250,0.01,VWS V14.01,2013-08-19 23:42:00,
2013-08-19 19:47:00,76.5,61.6,29.94,West,271,5.0,7.0,60,0.00,,BKN250,0.01,VWS V14.01,2013-08-19 23:47:00,
2013-08-19 19:52:00,76.4,61.5,29.94,West,273,2.0,9.0,60,0.00,,BKN250,0.01,VWS V14.01,2013-08-19 23:52:00,
2013-08-19 19:57:00,76.2,61.8,29.94,West,273,2.0,9.0,61,0.00,,BKN250,0.01,VWS V14.01,2013-08-19 23:57:00,
2013-08-19 20:02:00,76.1,61.7,29.94,West,273,0.0,2.0,61,0.00,,BKN250,0.01,VWS V14.01,2013-08-20 00:02:00,
2013-08-19 20:07:00,75.9,62.0,29.94,West,273,4.0,4.0,62,0.00,,BKN250,0.01,VWS V14.01,2013-08-20 00:07:00,
2013-08-19 20:12:00,75.7,62.2,29.94,West,275,2.0,6.0,63,0.00,,BKN250,0.01,VWS V14.01,2013-08-20 00:12:00,
2013-08-19 20:17:00,75.6,62.1,29.94,West,281,4.0,7.0,63,0.00,,BKN250,0.01,VWS V14.01,2013-08-20 00:17:00,
2013-08-19 20:22:00,75.5,62.0,29.94,West,274,4.0,8.0,63,0.00,,BKN250,0.01,VWS V14.01,2013-08-20 00:22:00,
2013-08-19 20:27:00,75.4,62.4,29.94,West,279,5.0,9.0,64,0.00,,BKN250,0.01,VWS V14.01,2013-08-20 00:27:00,
2013-08-19 20:32:00,75.3,62.3,29.94,West,281,1.0,6.0,64,0.00,,BKN250,0.01,VWS V14.01,2013-08-20 00:32:00,
2013-08-19 20:37:00,75.2,62.2,29.94,West,281,2.0,7.0,64,0.00,,BKN250,0.01,VWS V14.01,2013-08-20 00:37:00,
2013-08-19 20:42:00,75.1,62.1,29.94,West,268,0.0,7.0,64,0.00,,BKN250,0.01,VWS V14.01,2013-08-20 00:42:00,
2013-08-19 20:47:00,75.0,62.0,29.95,West,273,0.0,7.0,64,0.00,,BKN250,0.01,VWS V14.01,2013-08-20 00:47:00,
2013-08-19 20:52:00,74.8,61.8,29.94,West,273,7.0,7.0,64,0.00,,BKN250,0.01,VWS V14.01,2013-08-20 00:52:00,
2013-08-19 20:57:00,74.8,61.8,29.95,West,278,4.0,7.0,64,0.00,,BKN250,0.01,VWS V14.01,2013-08-20 00:57:00,
2013-08-19 21:02:00,74.6,61.6,29.95,WNW,288,1.0,6.0,64,0.00,,BKN250,0.01,VWS V14.01,2013-08-20 01:02:00,
2013-08-19 21:07:00,74.5,61.5,29.95,WNW,288,1.0,8.0,64,0.00,,BKN250,0.01,VWS V14.01,2013-08-20 01:07:00,
2013-08-19 21:12:00,74.4,61.4,29.95,WNW,285,2.0,8.0,64,0.00,,BKN250,0.01,VWS V14.01,2013-08-20 01:12:00,
2013-08-19 21:17:00,74.2,61.2,29.95,West,281,2.0,8.0,64,0.00,,BKN250,0.01,VWS V14.01,2013-08-20 01:17:00,
2013-08-19 21:22:00,74.1,61.6,29.94,West,281,2.0,8.0,65,0.00,,BKN250,0.01,VWS V14.01,2013-08-20 01:22:00,
2013-08-19 21:27:00,74.0,61.5,29.95,West,281,0.0,8.0,65,0.00,,BKN250,0.01,VWS V14.01,2013-08-20 01:27:00,
2013-08-19 21:32:00,73.9,61.4,29.95,West,281,1.0,2.0,65,0.00,,BKN250,0.01,VWS V14.01,2013-08-20 01:32:00,
2013-08-19 21:37:00,73.7,61.2,29.94,West,281,2.0,4.0,65,0.00,,BKN250,0.01,VWS V14.01,2013-08-20 01:37:00,
2013-08-19 21:42:00,73.6,61.1,29.94,West,281,4.0,6.0,65,0.00,,BKN250,0.01,VWS V14.01,2013-08-20 01:42:00,
2013-08-19 21:47:00,73.5,61.0,29.94,West,281,1.0,6.0,65,0.00,,BKN250,0.01,VWS V14.01,2013-08-20 01:47:00,
2013-08-19 21:52:00,73.3,61.3,29.95,WNW,283,0.0,7.0,66,0.00,,BKN250,0.01,VWS V14.01,2013-08-20 01:52:00,
2013-08-19 21:57:00,73.2,61.2,29.95,WNW,283,2.0,7.0,66,0.00,,BKN250,0.01,VWS V14.01,2013-08-20 01:57:00,
2013-08-19 22:02:00,73.1,61.1,29.95,WNW,283,0.0,5.0,66,0.00,,BKN250,0.01,VWS V14.01,2013-08-20 02:02:00,
2013-08-19 22:07:00,73.0,61.0,29.95,WNW,283,5.0,6.0,66,0.00,,BKN250,0.01,VWS V14.01,2013-08-20 02:07:00,
2013-08-19 22:12:00,72.9,60.9,29.95,West,279,5.0,8.0,66,0.00,,BKN250,0.01,VWS V14.01,2013-08-20 02:12:00,
2013-08-19 22:17:00,72.8,61.2,29.95,West,279,0.0,8.0,67,0.00,,BKN250,0.01,VWS V14.01,2013-08-20 02:17:00,
2013-08-19 22:22:00,72.7,61.1,29.95,West,279,0.0,8.0,67,0.00,,BKN250,0.01,VWS V14.01,2013-08-20 02:22:00,
2013-08-19 22:27:00,72.6,61.0,29.95,West,280,0.0,8.0,67,0.00,,BKN250,0.01,VWS V14.01,2013-08-20 02:27:00,
2013-08-19 22:32:00,72.6,61.0,29.95,West,277,6.0,6.0,67,0.00,,BKN250,0.01,VWS V14.01,2013-08-20 02:32:00,
2013-08-19 22:37:00,72.6,61.0,29.95,West,277,4.0,11.0,67,0.00,,BKN250,0.01,VWS V14.01,2013-08-20 02:37:00,
2013-08-19 22:42:00,72.5,60.9,29.95,WSW,243,8.0,11.0,67,0.00,,BKN250,0.01,VWS V14.01,2013-08-20 02:42:00,
2013-08-19 22:47:00,72.5,61.3,29.95,West,277,5.0,11.0,68,0.00,,BKN250,0.01,VWS V14.01,2013-08-20 02:47:00,
2013-08-19 22:52:00,72.4,61.2,29.95,West,279,5.0,11.0,68,0.00,,BKN250,0.01,VWS V14.01,2013-08-20 02:52:00,
2013-08-19 22:57:00,72.3,61.2,29.95,West,273,4.0,13.0,68,0.00,,BKN250,0.01,VWS V14.01,2013-08-20 02:57:00,
2013-08-19 23:02:00,72.1,61.0,29.95,West,273,4.0,5.0,68,0.00,,BKN140,0.01,VWS V14.01,2013-08-20 03:02:00,
2013-08-19 23:07:00,72.0,60.9,29.95,West,277,4.0,7.0,68,0.00,,BKN140,0.01,VWS V14.01,2013-08-20 03:07:00,
2013-08-19 23:12:00,71.9,61.2,29.95,West,278,5.0,7.0,69,0.00,,BKN140,0.01,VWS V14.01,2013-08-20 03:12:00,
2013-08-19 23:17:00,71.8,61.1,29.95,West,271,4.0,9.0,69,0.00,,BKN140,0.01,VWS V14.01,2013-08-20 03:17:00,
2013-08-19 23:22:00,71.7,61.0,29.95,West,271,2.0,9.0,69,0.00,,BKN140,0.01,VWS V14.01,2013-08-20 03:22:00,
2013-08-19 23:27:00,71.7,61.0,29.95,West,275,4.0,9.0,69,0.00,,BKN140,0.01,VWS V14.01,2013-08-20 03:27:00,
2013-08-19 23:32:00,71.6,61.3,29.95,West,277,2.0,12.0,70,0.00,,BKN140,0.01,VWS V14.01,2013-08-20 03:32:00,
2013-08-19 23:37:00,71.6,61.3,29.95,West,270,0.0,12.0,70,0.00,,BKN140,0.01,VWS V14.01,2013-08-20 03:37:00,
2013-08-19 23:42:00,71.6,61.3,29.95,West,281,6.0,12.0,70,0.00,,BKN140,0.01,VWS V14.01,2013-08-20 03:42:00,
2013-08-19 23:47:00,71.6,61.3,29.95,West,277,6.0,12.0,70,0.00,,BKN140,0.01,VWS V14.01,2013-08-20 03:47:00,
2013-08-19 23:52:00,71.6,61.3,29.95,West,279,5.0,12.0,70,0.00,,BKN140,0.01,VWS V14.01,2013-08-20 03:52:00,
2013-08-19 23:57:00,71.5,61.2,29.95,West,279,6.0,12.0,70,0.00,,BKN140,0.01,VWS V14.01,2013-08-20 03:57:00,